This is the latest recevied weather packets stored in our database for station/object F4GCF. If no packets are shown the sender has not sent any weather packets the latest 1 day(s).
| Time | Temp. | Humidity | Pressure | Rain* | Wind** | Luminosity | Snow |
|---|---|---|---|---|---|---|---|
| 1777980705 | 17.22° C | 70% | 1013 hPa | 0 mm | 2.24 m/s, 265° | - | - |
| 1777980405 | 17.22° C | 70% | 1014 hPa | 0 mm | 0.89 m/s, 248° | - | - |
| 1777980105 | 17.22° C | 70% | 1014 hPa | 0 mm | 2.68 m/s, 256° | - | - |
| 1777979805 | 17.22° C | 70% | 1014 hPa | 0 mm | 1.34 m/s, 248° | - | - |
| 1777979505 | 16.67° C | 70% | 1013 hPa | 0 mm | 2.24 m/s, 270° | - | - |
| 1777979205 | 16.67° C | 70% | 1013 hPa | 0 mm | 2.24 m/s, 292° | - | - |
| 1777978904 | 16.67° C | 70% | 1013 hPa | 0 mm | 2.24 m/s, 292° | - | - |
| 1777978604 | 16.67° C | 70% | 1013 hPa | 0 mm | 2.24 m/s, 292° | - | - |
| 1777978304 | 16.67° C | 69% | 1013 hPa | 0 mm | 0.89 m/s, 270° | - | - |
| 1777978004 | 16.67° C | 70% | 1013 hPa | 0 mm | 1.34 m/s, 268° | - | - |
| 1777977704 | 16.67° C | 70% | 1013 hPa | 0 mm | 1.34 m/s, 277° | - | - |
| 1777977404 | 16.67° C | 70% | 1013 hPa | 0 mm | 1.34 m/s, 315° | - | - |
| 1777977104 | 16.67° C | 70% | 1013 hPa | 0 mm | 0.89 m/s, 292° | - | - |
| 1777976806 | 16.67° C | 70% | 1012 hPa | 0 mm | 1.34 m/s, 248° | - | - |
| 1777976505 | 16.67° C | 71% | 1012 hPa | 0 mm | 0.89 m/s, 268° | - | - |
| 1777976205 | 16.67° C | 71% | 1012 hPa | 0 mm | 0.89 m/s, 292° | - | - |
| 1777975905 | 16.67° C | 71% | 1013 hPa | 0 mm | 1.34 m/s, 221° | - | - |
| 1777975605 | 16.11° C | 71% | 1013 hPa | 0 mm | 2.68 m/s, 273° | - | - |
| 1777975305 | 16.11° C | 70% | 1013 hPa | 0 mm | 0.89 m/s, 289° | - | - |
| 1777975005 | 16.11° C | 70% | 1013 hPa | 0 mm | 1.34 m/s, 286° | - | - |
| 1777974705 | 16.11° C | 71% | 1013 hPa | 0 mm | 2.24 m/s, 279° | - | - |
| 1777974405 | 15.56° C | 71% | 1013 hPa | 0 mm | 1.34 m/s, 255° | - | - |
| 1777974104 | 15.56° C | 71% | 1013 hPa | 0 mm | 1.34 m/s, 282° | - | - |
| 1777973804 | 15.56° C | 71% | 1013 hPa | 0 mm | 1.34 m/s, 248° | - | - |
| 1777973504 | 15.56° C | 71% | 1013 hPa | 0 mm | 2.24 m/s, 292° | - | - |
* Rain latest hour (hover to see other rain measurements)
** Current wind speed in m/s (hover to see current wind gust speed)